Lincolnton, NC

9:22 PM EDT on April 20, 2018 (GMT -0400)
Lincolnton-Lincoln County Regional

Weather History for KIPJ - September, 2013

Change the Weather History Date:

Wednesday, September 11, 2013

  Actual Average (KCLT) Record (KCLT)
Temperature  
Mean Temperature 76 °F -  
Max Temperature 89 °F 83 °F 96 °F (1925)
Min Temperature 64 °F 63 °F 49 °F (1956)
Cooling Degree Days 12    
Growing Degree Days 26 (Base 50)    
Moisture  
Dew Point 67 °F    
Average Humidity 85    
Maximum Humidity 100    
Minimum Humidity 40    
Precipitation  
Precipitation 0.00 in - - ()
Sea Level Pressure  
Sea Level Pressure 30.20 in    
Wind  
Wind Speed 1 mph (West)    
Max Wind Speed 6 mph    
Max Gust Speed -    
Visibility 6 miles    
Events      
Averages and records for this station are not official NWS values.
T = Trace of Precipitation, MM = Missing Value Source: NWS Daily Summary

Daily Weather History Graph

Daily Weather History Graph

Search for Another Location

Airport or City:

Astronomy

Sep. 11, 2013 Rise Set
Actual Time 7:04 AM EDT 7:37 PM EDT
Civil Twilight 6:38 AM EDT 8:02 PM EDT
Nautical Twilight 6:08 AM EDT 8:32 PM EDT
Astronomical Twilight 5:37 AM EDT 9:03 PM EDT
Moon 1:17 PM EDT (9/11) 11:45 PM EDT (9/11)
Length of Visible Light 13h 23m
Length of Day
12h 32m
Waxing Crescent, 38% of the Moon is Illuminated
Sep 11
Waxing Crescent
Sep 12
First Quarter
Sep 19
Full
Sep 26
Last Quarter
Oct 4
New

Hourly Weather History & Observations

Time (EDT) Temp. Heat Index Dew Point Humidity Pressure Visibility Wind Dir Wind Speed Gust Speed Precip Events Conditions
12:17 AM 71.6 °F - 69.8 °F 94% 30.24 in 7.0 mi Calm Calm - N/A   Mostly Cloudy
12:40 AM 71.6 °F - 69.8 °F 94% 30.23 in 10.0 mi Calm Calm - N/A   Mostly Cloudy
1:16 AM 69.8 °F - 69.8 °F 100% 30.23 in 7.0 mi Calm Calm - N/A   Clear
1:57 AM 69.8 °F - 68.0 °F 94% 30.23 in 5.0 mi Calm Calm - N/A   Scattered Clouds
2:20 AM 68.0 °F - 66.2 °F 94% 30.22 in 5.0 mi Calm Calm - N/A   Clear
2:57 AM 66.2 °F - 66.2 °F 100% 30.22 in 3.0 mi Calm Calm - N/A   Clear
3:16 AM 66.2 °F - 66.2 °F 100% 30.21 in 4.0 mi Calm Calm - N/A   Clear
3:36 AM 66.2 °F - 66.2 °F 100% 30.21 in 4.0 mi Calm Calm - N/A   Clear
3:59 AM 66.2 °F - 64.4 °F 94% 30.21 in 1.8 mi Calm Calm - N/A   Mist
4:59 AM 64.4 °F - 64.4 °F 100% 30.21 in 2.5 mi Calm Calm - N/A   Clear
6:17 AM 64.4 °F - 64.4 °F 100% 30.22 in 5.0 mi Calm Calm - N/A   Clear
7:56 AM 64.4 °F - 64.4 °F 100% 30.24 in 3.0 mi Calm Calm - N/A   Clear
8:37 AM 69.8 °F - 68.0 °F 94% 30.24 in 5.0 mi Calm Calm - N/A   Clear
9:37 AM 77.0 °F - 68.0 °F 74% 30.25 in 10.0 mi WNW 3.5 mph - N/A   Scattered Clouds
9:58 AM 78.8 °F - 68.0 °F 69% 30.24 in 10.0 mi WNW 4.6 mph - N/A   Mostly Cloudy
3:39 PM 89.6 °F 90.1 °F 62.6 °F 40% 30.14 in 10.0 mi WSW 4.6 mph - N/A   Mostly Cloudy
4:59 PM 87.8 °F 88.5 °F 62.6 °F 43% 30.12 in 10.0 mi WSW 5.8 mph - N/A   Clear
5:39 PM 86.0 °F 87.3 °F 64.4 °F 48% 30.12 in 10.0 mi WSW 4.6 mph - N/A   Clear
6:16 PM 82.4 °F 84.6 °F 66.2 °F 58% 30.12 in 10.0 mi Calm Calm - N/A   Clear
10:39 PM 71.6 °F - 69.8 °F 94% 30.13 in 7.0 mi Calm Calm - N/A   Scattered Clouds
11:38 PM 69.8 °F - 68.0 °F 94% 30.12 in 7.0 mi Calm Calm - N/A   Clear